Location: Buchdorf
(48.7842°N, 10.8275°E)
Time: 03:22:48
(UTC+00:00)

Cosmos 2369 Rocket - Pass Details

Date: 09 April 2020
Orbit: 829 x 852 km, 71.0° (Epoch: 04 June)

Event Time Altitude Azimuth Distance (km) Brightness Sun altitude
Rises 18:41:38 0° 324° (NW) 3,422 6.4 -7.4°
Reaches altitude 10° 18:44:21 10° 314° (NW) 2,479 5.9 -7.8°
Maximum altitude 18:49:11 29° 256° (WSW) 1,493 4.2 -8.5°
Drops below altitude 10° 18:53:58 10° 197° (SSW) 2,451 4.6 -9.3°
Sets 18:56:39 0° 187° (S) 3,376 5.2 -9.7°
